Location: Binningen
(47.7924°N, 8.7261°E)
Time: 20:49:18
(UTC+00:00)

NOSS 2-1 (D) - Pass Details

Date: 17 May 2021
Orbit: 431 x 1770 km, 63.3° (Epoch: 26 May)

Event Time Altitude Azimuth Distance (km) Brightness Sun altitude
Rises 22:58:05 0° 317° (NW) 2,943 7.8 -22.5°
Reaches altitude 10° 23:00:05 10° 314° (NW) 2,169 7.0 -22.5°
Maximum altitude 23:04:59 65° 233° (SW) 959 4.3 -22.6°
Enters shadow 23:06:37 47° 174° (S) 1,223 4.5 -22.6°
